パンスターズ彗星

C/2017 S2 ( PanSTARRS )

English version
Home page
Updated on October 7, 2017

---------------------------------------------------------------------

・ プロフィール

発見日 2017年9月16日
発見光度 20.9等
発見者 Pan-STARRS 1 telescope (Haleakala)

・ 軌道要素

Epoch 2017 Sept. 4.0 TT = JDT 2458000.5
T 2017 Aug. 28.60167 TT                                 MPCW
q   3.6139792            (2000.0)            P               Q
n   0.01062347     Peri.  305.80987     +0.97210095     -0.13095815
a  20.4939274      Node    62.44683     +0.21095705     +0.85083118
e   0.8236561      Incl.   12.67945     -0.10255182     +0.50885780
P  92.78
From 43 observations 2017 Aug. 22-Sept. 29, mean residual 0".4.

・ 光度変化

        m1 = 12.5 + 5 logΔ + 10.0 log r

---------------------------------------------------------------------

軌道要素はM.P.E.C. 2017-T14に掲載されたものです。
光度グラフはComet for Windowsで作成したものです。

---------------------------------------------------------------------

Copyright(C) Seiichi Yoshida (comet@aerith.net). All rights reserved.